DW2589 Scituate MA US current weather conditions

sailwx.info

Wind from 105 at 0 knots gusting 3

Air temperature 28.9° C
Dewpoint 22.4° C

Last reported at 2020-Jul-02 21:06 UTC.
Time now 2020-Jul-02 22:07 UTC

Location: N 42°11' W 070°46'.
View on Google Maps.

See reports from other nearby stations

  
Tides and Currents Weather Stations Pressure Air Temp Water Temp Dewpoint Dewpoint Depression Visibility Wind Speed Wind Dir Waves Ship Positions
date/time (UTC)wind fromknots sea level pressurealtimeterstation pressurevisibilityair tempwater tempwave heightnotes
2020-Jul-02 21:06 105 0 gusting 3 28.9
2020-Jul-02 21:01 079 28.9
2020-Jul-02 20:56 105 0 gusting 3 28.9
2020-Jul-02 20:51 112 0 gusting 3 29.4
2020-Jul-02 20:46 096 29.4
2020-Jul-02 20:41 139 0 gusting 2 29.4
2020-Jul-02 20:36 089 0 gusting 2 29.4
2020-Jul-02 20:31 122 29.4
2020-Jul-02 20:26 110 0 gusting 2 29.4
2020-Jul-02 20:20 110 0 gusting 3 28.9
2020-Jul-02 20:15 100 0 gusting 3 28.9
2020-Jul-02 20:10 121 0 gusting 3 28.9
2020-Jul-02 20:05 086 0 gusting 3 28.9
2020-Jul-02 20:01 110 1 gusting 4 28.3
2020-Jul-02 19:55 110 1 gusting 4 28.3
2020-Jul-02 19:50 105 1 gusting 4 28.3
2020-Jul-02 19:45 117 1 gusting 3 28.3
2020-Jul-02 19:40 088 1 gusting 4 28.3
2020-Jul-02 19:35 051 1 gusting 4 28.3
2020-Jul-02 19:30 101 0 gusting 3 28.3
2020-Jul-02 19:25 097 0 gusting 5 28.9
2020-Jul-02 19:20 120 0 gusting 5 28.9
2020-Jul-02 19:15 117 0 gusting 6 28.9
2020-Jul-02 19:10 134 0 gusting 6 28.3
2020-Jul-02 19:05 082 0 gusting 2 28.3
2020-Jul-02 19:00 096 1 gusting 4 27.8
2020-Jul-02 18:55 087 1 gusting 5 27.8
2020-Jul-02 18:50 075 0 gusting 5 27.8
2020-Jul-02 18:45 099 0 gusting 4 28.3
2020-Jul-02 18:40 076 0 gusting 4 28.3
2020-Jul-02 18:35 096 0 gusting 6 28.3
2020-Jul-02 18:30 058 0 gusting 6 27.8
2020-Jul-02 18:25 113 0 gusting 5 28.3
2020-Jul-02 18:20 085 0 gusting 4 27.8
2020-Jul-02 18:15 101 1 gusting 4 27.8
2020-Jul-02 18:10 096 1 gusting 4 27.8
2020-Jul-02 18:05 101 1 gusting 6 27.2
2020-Jul-02 18:00 109 1 gusting 6 27.8
2020-Jul-02 17:55 125 0 gusting 4 28.3
2020-Jul-02 17:50 088 0 gusting 3 28.3
2020-Jul-02 17:45 142 1 gusting 3 28.3
2020-Jul-02 17:40 128 0 gusting 3 27.8
2020-Jul-02 17:35 112 0 gusting 3 27.8
2020-Jul-02 17:30 101 0 gusting 4 27.8
2020-Jul-02 17:25 115 0 gusting 4 28.3
2020-Jul-02 17:20 089 0 gusting 5 28.3
2020-Jul-02 17:15 068 0 gusting 5 27.8
2020-Jul-02 17:10 102 0 gusting 4 27.8
2020-Jul-02 17:05 157 1 gusting 4 27.8
2020-Jul-02 17:00 108 0 gusting 3 27.8
2020-Jul-02 16:55 283 0 gusting 3 28.3
2020-Jul-02 16:50 132 28.9
2020-Jul-02 16:45 110 0 gusting 2 28.9
2020-Jul-02 16:40 084 0 gusting 2 28.9
2020-Jul-02 16:35 078 0 gusting 2 29.4
2020-Jul-02 16:30 204 0 gusting 4 29.4
2020-Jul-02 16:25 036 0 gusting 4 28.9
2020-Jul-02 16:20 092 29.4
2020-Jul-02 16:15 262 0 gusting 1 28.9
2020-Jul-02 16:10 091 0 gusting 1 28.9
2020-Jul-02 16:05 218 0 gusting 1 28.3
2020-Jul-02 16:00 196 0 gusting 2 28.3
2020-Jul-02 15:55 246 0 gusting 3 27.8
2020-Jul-02 15:50 295 0 gusting 3 28.3
2020-Jul-02 15:40 235 0 gusting 3 27.8
2020-Jul-02 15:35 117 0 gusting 2 27.8
2020-Jul-02 15:30 096 0 gusting 3 27.8
2020-Jul-02 15:25 124 0 gusting 3 27.2
2020-Jul-02 15:20 238 0 gusting 1 27.2
2020-Jul-02 15:15 141 0 gusting 1 27.2
2020-Jul-02 15:10 269 0 gusting 1 27.2
2020-Jul-02 15:05 250 0 gusting 1 27.2
2020-Jul-02 15:00 238 26.7
2020-Jul-02 14:55 176 26.7
2020-Jul-02 14:50 148 0 gusting 2 26.7
2020-Jul-02 14:45 223 0 gusting 2 26.1
2020-Jul-02 14:40 086 0 gusting 2 25.6
2020-Jul-02 14:34 238 0 gusting 3 25.6
2020-Jul-02 14:30 071 0 gusting 3 25.6
2020-Jul-02 14:24 248 25.6
2020-Jul-02 14:19 269 25.6
2020-Jul-02 14:14 123 0 gusting 1 25.0
2020-Jul-02 14:09 143 0 gusting 1 25.0
2020-Jul-02 14:04 254 0 gusting 3 25.0
2020-Jul-02 13:59 079 0 gusting 3 25.0
2020-Jul-02 13:54 103 0 gusting 2 24.4
2020-Jul-02 13:49 109 0 gusting 2 24.4
2020-Jul-02 13:44 243 23.9
2020-Jul-02 13:39 224 0 gusting 3 23.9
2020-Jul-02 13:34 238 0 gusting 3 23.3
2020-Jul-02 13:29 271 0 gusting 2 23.3
2020-Jul-02 13:24 207 0 gusting 2 22.8
2020-Jul-02 13:19 231 22.8
2020-Jul-02 13:14 237 0 gusting 1 22.2
2020-Jul-02 13:09 237 22.2
2020-Jul-02 13:04 097 21.7
2020-Jul-02 12:59 217 21.1
2020-Jul-02 12:54 225 21.1
2020-Jul-02 12:49 098 20.6
2020-Jul-02 12:44 228 20.0
2020-Jul-02 12:39 233 0 gusting 2 19.4
2020-Jul-02 12:34 275 0 gusting 2 19.4
2020-Jul-02 12:29 115 0 gusting 1 19.4
2020-Jul-02 12:24 096 0 gusting 2 19.4
2020-Jul-02 12:19 233 0 gusting 2 18.9
2020-Jul-02 12:14 239 0 gusting 2 18.9
2020-Jul-02 12:09 229 0 gusting 2 18.9
2020-Jul-02 12:04 229 0 gusting 2 18.9
2020-Jul-02 11:59 252 0 gusting 1 18.9
2020-Jul-02 11:54 229 18.9
2020-Jul-02 11:49 224 18.9
2020-Jul-02 11:44 221 18.3
2020-Jul-02 11:39 110 18.9
2020-Jul-02 11:34 244 18.3
2020-Jul-02 11:29 245 18.3
2020-Jul-02 11:24 245 18.3
2020-Jul-02 11:19 158 18.3
2020-Jul-02 11:14 158 18.3
2020-Jul-02 11:09 149 18.3
2020-Jul-02 11:04 190 18.3
2020-Jul-02 10:59 192 18.3
2020-Jul-02 10:54 210 17.8
2020-Jul-02 10:49 210 17.8
2020-Jul-02 10:44 210 17.8
2020-Jul-02 10:39 210 17.8
2020-Jul-02 10:34 210 17.8
2020-Jul-02 10:29 210 17.8
2020-Jul-02 10:24 210 17.2
2020-Jul-02 10:19 210 17.2
2020-Jul-02 10:14 210 17.2
2020-Jul-02 10:09 210 17.2
2020-Jul-02 10:04 210 17.2
2020-Jul-02 09:59 210 17.2
2020-Jul-02 09:54 210 17.2
2020-Jul-02 09:49 210 17.2
2020-Jul-02 09:44 210 17.2
2020-Jul-02 09:39 210 17.2
2020-Jul-02 09:34 211 17.2
2020-Jul-02 09:29 210 17.2
2020-Jul-02 09:24 210 17.2
2020-Jul-02 09:19 211 17.2
2020-Jul-02 09:14 210 17.2
2020-Jul-02 09:09 210 17.2
2020-Jul-02 09:04 188 17.2
2020-Jul-02 08:59 189 17.2
2020-Jul-02 08:54 189 17.2
2020-Jul-02 08:49 231 17.2
2020-Jul-02 08:44 231 17.2
2020-Jul-02 08:39 231 17.2
2020-Jul-02 08:34 231 17.2
2020-Jul-02 08:29 230 17.2
2020-Jul-02 08:24 231 17.2
2020-Jul-02 08:19 231 17.2
2020-Jul-02 08:14 231 17.2
2020-Jul-02 08:09 231 17.2
2020-Jul-02 08:04 205 17.2
2020-Jul-02 07:59 205 17.2
2020-Jul-02 07:54 206 17.2
2020-Jul-02 07:49 205 17.2
2020-Jul-02 07:44 205 17.2
2020-Jul-02 07:39 206 17.8
2020-Jul-02 07:34 206 17.8
2020-Jul-02 07:29 205 17.8
2020-Jul-02 07:24 205 17.8
2020-Jul-02 07:19 205 17.8
2020-Jul-02 07:14 205 17.8
2020-Jul-02 07:09 205 17.8
2020-Jul-02 07:04 205 17.8
2020-Jul-02 06:59 206 17.8
2020-Jul-02 06:54 205 17.8
2020-Jul-02 06:49 205 17.8
2020-Jul-02 06:44 206 17.8
2020-Jul-02 06:39 206 17.8
2020-Jul-02 06:34 205 17.8
2020-Jul-02 06:29 205 18.3
2020-Jul-02 06:24 205 18.3
2020-Jul-02 06:19 205 18.3
2020-Jul-02 06:14 205 18.3
2020-Jul-02 06:09 205 18.3
2020-Jul-02 06:04 205 18.3
2020-Jul-02 05:59 205 18.3
2020-Jul-02 05:54 205 18.3
2020-Jul-02 05:49 205 18.3
2020-Jul-02 05:44 206 18.3
2020-Jul-02 05:39 205 18.3
2020-Jul-02 05:34 205 18.3
2020-Jul-02 05:29 205 18.3
2020-Jul-02 05:24 188 18.3
2020-Jul-02 05:18 188 18.3
2020-Jul-02 05:13 188 18.3
2020-Jul-02 05:08 188 18.3
2020-Jul-02 05:03 183 18.3
2020-Jul-02 04:58 183 18.3
2020-Jul-02 04:53 183 18.3
2020-Jul-02 04:48 183 18.3
2020-Jul-02 04:43 174 18.3
2020-Jul-02 04:38 174 18.3
2020-Jul-02 04:33 174 18.3
2020-Jul-02 04:28 174 18.3
2020-Jul-02 04:23 174 18.3
2020-Jul-02 04:18 174 18.3
2020-Jul-02 04:13 174 18.3
2020-Jul-02 04:08 174 18.3
2020-Jul-02 04:03 174 18.3
2020-Jul-02 03:58 174 18.3
2020-Jul-02 03:53 174 17.8
2020-Jul-02 03:48 174 18.3
2020-Jul-02 03:43 174 18.3
2020-Jul-02 03:38 174 18.3
2020-Jul-02 03:33 174 18.3
2020-Jul-02 03:28 174 18.3
2020-Jul-02 03:23 174 18.3
2020-Jul-02 03:18 174 18.3
2020-Jul-02 03:13 174 18.3
2020-Jul-02 03:08 174 18.3
2020-Jul-02 03:03 174 18.3
2020-Jul-02 02:58 174 18.3
2020-Jul-02 02:53 174 18.3
2020-Jul-02 02:48 174 18.3
2020-Jul-02 02:43 174 18.3
2020-Jul-02 02:38 174 18.3
2020-Jul-02 02:33 174 18.3
2020-Jul-02 02:28 174 18.3
2020-Jul-02 02:23 174 18.3
2020-Jul-02 02:18 174 18.3
2020-Jul-02 02:13 174 18.3
2020-Jul-02 02:08 174 18.3
2020-Jul-02 02:03 174 18.3
2020-Jul-02 01:58 174 18.3
2020-Jul-02 01:53 174 18.3
2020-Jul-02 01:48 174 18.3
2020-Jul-02 01:42 174 18.3
2020-Jul-02 01:37 174 18.3
2020-Jul-02 01:33 174 18.3
2020-Jul-02 01:27 174 18.3
2020-Jul-02 01:22 174 18.3
2020-Jul-02 01:17 174 18.3
2020-Jul-02 01:12 174 18.3
2020-Jul-02 01:08 174 18.9
2020-Jul-02 01:02 174 18.9
2020-Jul-02 00:57 174 18.9
2020-Jul-02 00:52 174 18.9
2020-Jul-02 00:47 174 18.9
2020-Jul-02 00:42 174 18.9
2020-Jul-02 00:37 174 19.4
2020-Jul-02 00:32 169 19.4
2020-Jul-02 00:27 169 19.4
2020-Jul-02 00:22 169 19.4
2020-Jul-02 00:17 169 19.4
2020-Jul-02 00:12 169 20.0
2020-Jul-02 00:07 169 20.0
2020-Jul-02 00:02 169 20.0
2020-Jul-01 23:57 169 20.0
2020-Jul-01 23:52 169 20.0
2020-Jul-01 23:47 221 20.0
2020-Jul-01 23:42 230 0 gusting 1 20.0
2020-Jul-01 23:37 236 0 gusting 1 20.0
2020-Jul-01 23:32 234 0 gusting 1 20.0
2020-Jul-01 23:27 226 0 gusting 1 20.0
2020-Jul-01 23:22 248 0 gusting 2 20.6
2020-Jul-01 23:17 226 0 gusting 3 20.6
2020-Jul-01 23:12 225 0 gusting 3 20.6
2020-Jul-01 23:07 230 0 gusting 4 20.6
2020-Jul-01 23:02 244 0 gusting 4 20.6
2020-Jul-01 22:57 252 0 gusting 1 21.1
2020-Jul-01 22:52 218 0 gusting 1 21.1
2020-Jul-01 22:47 221 21.1
2020-Jul-01 22:42 229 21.1
2020-Jul-01 22:37 229 21.1
2020-Jul-01 22:32 224 21.1
2020-Jul-01 22:27 224 21.1
2020-Jul-01 22:22 228 21.1
2020-Jul-01 22:17 248 21.1
2020-Jul-01 22:12 247 21.1
2020-Jul-01 22:07 260 21.1
2020-Jul-01 22:02 170 21.1
2020-Jul-01 21:57 162 21.1
2020-Jul-01 21:52 140 21.1
2020-Jul-01 21:47 234 21.1
2020-Jul-01 21:42 243 21.7
2020-Jul-01 21:37 243 21.7
2020-Jul-01 21:32 243 21.7
2020-Jul-01 21:27 243 21.7
2020-Jul-01 21:22 243 21.1
2020-Jul-01 21:16 243 21.1
2020-Jul-01 21:11 243 21.1
2020-Jul-01 21:06 243 21.1
2020-Jul-01 21:01 238 21.1
2020-Jul-01 20:56 238 21.1
2020-Jul-01 20:51 134 21.1
2020-Jul-01 20:46 134 21.1
2020-Jul-01 20:41 134 21.1
2020-Jul-01 20:36 134 21.1
2020-Jul-01 20:31 134 21.1
2020-Jul-01 20:26 136 21.7
2020-Jul-01 20:21 136 21.7
2020-Jul-01 20:16 136 21.7
2020-Jul-01 20:11 134 21.7
2020-Jul-01 20:06 134 21.1
2020-Jul-01 20:01 134 21.1
2020-Jul-01 19:56 135 21.7
2020-Jul-01 19:51 132 21.7
2020-Jul-01 19:46 132 21.7
2020-Jul-01 19:41 132 21.7
2020-Jul-01 19:36 109 21.7
2020-Jul-01 19:31 110 21.7
2020-Jul-01 19:26 078 21.7
2020-Jul-01 19:21 108 0 gusting 4 21.7
2020-Jul-01 19:16 105 0 gusting 4 21.7
2020-Jul-01 19:11 099 21.7
2020-Jul-01 19:06 091 0 gusting 3 21.7
2020-Jul-01 19:01 085 0 gusting 3 21.7
2020-Jul-01 18:56 103 0 gusting 2 22.2
2020-Jul-01 18:51 088 0 gusting 2 22.8
2020-Jul-01 18:46 135 22.8
2020-Jul-01 18:41 109 23.3
2020-Jul-01 18:36 096 22.8
2020-Jul-01 18:31 086 0 gusting 2 22.8
2020-Jul-01 18:26 071 1 gusting 4 22.8
2020-Jul-01 18:21 102 1 gusting 5 23.3
2020-Jul-01 18:16 115 1 gusting 5 23.3
2020-Jul-01 18:11 259 0 gusting 3 23.3
2020-Jul-01 18:06 120 1 gusting 4 22.8
2020-Jul-01 18:01 115 1 gusting 4 22.2
2020-Jul-01 17:56 124 0 gusting 4 22.2
2020-Jul-01 17:51 103 1 gusting 3 22.2
2020-Jul-01 17:46 104 0 gusting 3 22.2
2020-Jul-01 17:41 102 0 gusting 2 22.2
2020-Jul-01 17:36 106 1 gusting 4 21.7
2020-Jul-01 17:31 117 2 gusting 5 21.7
2020-Jul-01 17:26 099 1 gusting 5 21.7
2020-Jul-01 17:21 073 1 gusting 3 22.2
2020-Jul-01 17:16 112 0 gusting 2 22.2
2020-Jul-01 17:11 135 22.8
2020-Jul-01 17:06 115 0 gusting 1 22.8
2020-Jul-01 17:01 086 0 gusting 3 22.8
2020-Jul-01 16:56 016 0 gusting 3 22.2
2020-Jul-01 16:51 028 0 gusting 4 22.2
2020-Jul-01 16:46 124 0 gusting 4 21.7
2020-Jul-01 16:40 113 0 gusting 3 21.7
2020-Jul-01 16:35 113 21.7
2020-Jul-01 16:31 100 0 gusting 3 21.1
2020-Jul-01 16:25 143 0 gusting 4 21.1
2020-Jul-01 16:20 083 0 gusting 4 20.6
2020-Jul-01 16:15 150 20.6
2020-Jul-01 16:10 159 20.6
2020-Jul-01 16:05 108 20.6
2020-Jul-01 16:00 108 20.6
2020-Jul-01 15:55 139 21.1
2020-Jul-01 15:50 139 0 gusting 2 21.1
2020-Jul-01 15:45 108 0 gusting 2 21.1
2020-Jul-01 15:40 095 0 gusting 3 21.7
2020-Jul-01 15:35 089 21.7
2020-Jul-01 15:30 089 21.7
2020-Jul-01 15:25 105 0 gusting 2 21.7
2020-Jul-01 15:20 114 0 gusting 3 21.7
2020-Jul-01 15:15 210 1 gusting 5 22.2
2020-Jul-01 15:10 114 1 gusting 5 22.8
2020-Jul-01 15:05 115 0 gusting 4 22.8
2020-Jul-01 15:00 134 0 gusting 4 22.8
2020-Jul-01 14:55 089 0 gusting 2 22.2
2020-Jul-01 14:50 110 21.7
2020-Jul-01 14:45 135 21.7
2020-Jul-01 14:40 101 0 gusting 2 21.1
2020-Jul-01 14:35 123 0 gusting 2 20.6
2020-Jul-01 14:30 131 0 gusting 2 20.6
2020-Jul-01 14:25 137 0 gusting 1 20.6
2020-Jul-01 14:20 119 20.6
2020-Jul-01 14:15 129 21.1
2020-Jul-01 14:10 131 20.6
2020-Jul-01 14:05 108 20.6
2020-Jul-01 14:00 108 20.6
2020-Jul-01 13:55 108 20.6
2020-Jul-01 13:50 110 20.6
2020-Jul-01 13:45 110 20.6
2020-Jul-01 13:40 110 0 gusting 2 20.6
2020-Jul-01 13:35 109 0 gusting 3 20.6
2020-Jul-01 13:30 132 1 gusting 4 20.6
2020-Jul-01 13:25 122 1 gusting 4 21.1
2020-Jul-01 13:20 093 0 gusting 3 21.1
2020-Jul-01 13:15 093 0 gusting 3 21.1
2020-Jul-01 13:10 117 21.7
2020-Jul-01 13:05 231 21.7
2020-Jul-01 13:00 231 21.7
2020-Jul-01 12:55 231 21.7
2020-Jul-01 12:50 232 21.7
2020-Jul-01 12:45 171 21.7
2020-Jul-01 12:40 141 0 gusting 3 21.7
2020-Jul-01 12:35 146 0 gusting 3 21.1
2020-Jul-01 12:30 108 0 gusting 0 20.6
2020-Jul-01 12:25 113 0 gusting 2 20.6
2020-Jul-01 12:20 120 0 gusting 2 20.6
2020-Jul-01 12:10 102 20.0
2020-Jul-01 12:00 110 19.4
2020-Jul-01 11:55 110 18.9
2020-Jul-01 11:50 111 18.9
2020-Jul-01 11:45 110 18.9
2020-Jul-01 11:35 110 0 gusting 1 18.9
2020-Jul-01 11:25 109 18.9
2020-Jul-01 11:20 125 18.9
2020-Jul-01 11:15 126 18.9
2020-Jul-01 11:10 126 18.3
2020-Jul-01 11:05 126 18.3
2020-Jul-01 11:00 200 18.3
2020-Jul-01 10:55 200 18.3
2020-Jul-01 10:50 032 18.3
2020-Jul-01 10:45 032 18.3
2020-Jul-01 10:40 032 18.3
2020-Jul-01 10:35 032 18.3
2020-Jul-01 10:30 032 18.3
2020-Jul-01 10:25 032 18.3
2020-Jul-01 10:15 032 18.3
2020-Jul-01 10:10 032 17.8
2020-Jul-01 10:05 032 17.8
2020-Jul-01 10:00 032 17.8
2020-Jul-01 09:55 032 17.8
2020-Jul-01 09:50 032 17.8
2020-Jul-01 09:45 032 17.8
2020-Jul-01 09:40 032 17.8
2020-Jul-01 09:35 032 17.8
2020-Jul-01 09:30 032 17.8
2020-Jul-01 09:25 032 17.8
2020-Jul-01 09:20 032 17.8
2020-Jul-01 09:15 032 17.8
2020-Jul-01 09:10 032 17.8
2020-Jul-01 09:05 032 17.8
2020-Jul-01 09:00 032 17.8
2020-Jul-01 08:55 032 17.8
2020-Jul-01 08:50 032 17.8
2020-Jul-01 08:45 032 17.8
2020-Jul-01 08:40 032 17.8
2020-Jul-01 08:35 032 17.8
2020-Jul-01 08:30 032 17.8
2020-Jul-01 08:25 032 17.8
2020-Jul-01 08:20 032 17.8
2020-Jul-01 08:15 032 17.8
2020-Jul-01 08:10 032 17.8
2020-Jul-01 08:04 032 17.8
2020-Jul-01 07:59 032 17.8
2020-Jul-01 07:54 032 17.8
2020-Jul-01 07:49 032 17.8
2020-Jul-01 07:44 032 17.8
2020-Jul-01 07:39 032 17.8
2020-Jul-01 07:34 032 17.8
2020-Jul-01 07:29 032 17.8
2020-Jul-01 07:24 032 17.8
2020-Jul-01 07:19 032 17.8
2020-Jul-01 07:14 032 17.8
2020-Jul-01 07:09 032 17.8
2020-Jul-01 07:04 032 17.8
2020-Jul-01 06:59 032 17.8
2020-Jul-01 06:54 032 17.8
2020-Jul-01 06:49 032 17.8
2020-Jul-01 06:44 032 17.8
2020-Jul-01 06:39 032 17.8
2020-Jul-01 06:34 032 17.8
2020-Jul-01 06:29 032 17.8
2020-Jul-01 06:24 032 17.8
2020-Jul-01 06:19 032 17.8
2020-Jul-01 06:14 032 17.8
2020-Jul-01 06:09 032 17.8
2020-Jul-01 06:04 032 17.8
2020-Jul-01 05:59 032 17.8
2020-Jul-01 05:54 032 17.2
2020-Jul-01 05:49 032 17.2
2020-Jul-01 05:44 032 17.2
2020-Jul-01 05:39 032 17.2
2020-Jul-01 05:34 032 17.2
2020-Jul-01 05:29 032 17.2
2020-Jul-01 05:24 032 17.2
2020-Jul-01 05:19 032 17.2
2020-Jul-01 05:14 032 17.2
2020-Jul-01 05:09 032 17.2
2020-Jul-01 05:04 032 17.2
2020-Jul-01 04:59 032 17.2
2020-Jul-01 04:54 032 17.2
2020-Jul-01 04:49 032 17.2
2020-Jul-01 04:44 032 17.2
2020-Jul-01 04:39 032 17.2
2020-Jul-01 04:34 032 17.2
2020-Jul-01 04:29 032 17.2
2020-Jul-01 04:24 032 17.2
2020-Jul-01 04:19 032 17.2
2020-Jul-01 04:14 032 17.2
2020-Jul-01 04:09 032 17.2
2020-Jul-01 04:04 032 17.2
2020-Jul-01 03:59 032 17.2
2020-Jul-01 03:54 032 17.2
2020-Jul-01 03:49 032 17.2
2020-Jul-01 03:44 032 17.2
2020-Jul-01 03:39 032 17.2
2020-Jul-01 03:34 032 17.2
2020-Jul-01 03:29 032 17.2
2020-Jul-01 03:24 032 17.8
2020-Jul-01 03:19 032 17.8
2020-Jul-01 03:14 032 17.8
2020-Jul-01 03:09 032 17.8
2020-Jul-01 03:04 032 17.8
2020-Jul-01 02:59 032 17.8
2020-Jul-01 02:54 032 17.8
2020-Jul-01 02:49 032 17.8
2020-Jul-01 02:44 032 17.8
2020-Jul-01 02:39 032 17.8
2020-Jul-01 02:34 032 17.8
2020-Jul-01 02:29 032 17.8
2020-Jul-01 02:24 032 17.8
2020-Jul-01 02:19 032 17.8
2020-Jul-01 02:14 032 17.8
2020-Jul-01 02:09 032 17.8
2020-Jul-01 02:04 032 17.8
2020-Jul-01 01:59 032 17.8
2020-Jul-01 01:54 032 18.3
2020-Jul-01 01:48 032 18.3
2020-Jul-01 01:44 032 18.3
2020-Jul-01 01:38 032 18.3
2020-Jul-01 01:33 032 18.3
2020-Jul-01 01:28 032 18.3
2020-Jul-01 01:23 032 18.3
2020-Jul-01 01:18 032 18.3
2020-Jul-01 01:13 032 18.3
2020-Jul-01 01:08 032 18.3
2020-Jul-01 01:03 032 18.3
2020-Jul-01 00:58 032 18.3
2020-Jul-01 00:53 032 18.3
2020-Jul-01 00:48 032 18.3
2020-Jul-01 00:43 032 18.3
2020-Jul-01 00:38 032 18.3
2020-Jul-01 00:33 032 18.3
2020-Jul-01 00:28 032 18.9
2020-Jul-01 00:23 032 18.9
2020-Jul-01 00:18 032 18.9
2020-Jul-01 00:13 032 18.9
2020-Jul-01 00:08 032 18.9
2020-Jul-01 00:03 032 18.9
2020-Jun-30 23:58 032 18.9
2020-Jun-30 23:53 039 18.9
2020-Jun-30 23:48 039 18.9
2020-Jun-30 23:43 040 18.9
2020-Jun-30 23:38 040 18.9
2020-Jun-30 23:33 040 18.9
2020-Jun-30 23:28 040 18.9
2020-Jun-30 23:23 039 18.9
2020-Jun-30 23:18 039 18.9
2020-Jun-30 23:13 037 19.4
2020-Jun-30 23:08 037 19.4
2020-Jun-30 23:03 031 19.4
2020-Jun-30 22:58 101 19.4
2020-Jun-30 22:53 109 20.0
2020-Jun-30 22:48 082 20.0
2020-Jun-30 22:43 082 20.0
2020-Jun-30 22:38 082 20.0
2020-Jun-30 22:33 036 19.4
2020-Jun-30 22:28 035 19.4
2020-Jun-30 22:23 034 20.0
2020-Jun-30 22:18 036 20.0
2020-Jun-30 22:13 033 19.4
2020-Jun-30 22:08 007 19.4
2020-Jun-30 22:03 007 19.4